Home   Weather   Canelones   Past weeks
Flag for Uruguay

Past Weather in Canelones, Uruguay — Yesterday and Last 2 Weeks

Now
66 °F

Clear.


Feels Like: 66 °F
Forecast: 91 / 59 °F
Wind: 7 mph from North

Location: Carrasco

Current Time: Feb 28, 2020 at 12:41:38 am

Latest Report: Feb 28, 2020 at 12:00 am


Visibility: 10 mi

Pressure: 29.92 "Hg

Humidity: 52%

Dew Point: 48 °F

Location of CanelonesLocation

Past Weather in Canelones — Graph

°F

Canelones Temperature Yesterday

Maximum temperature yesterday: 82 °F (at 1:00 pm)
Minimum temperature yesterday: 52 °F (at 9:00 am)
Average temperature yesterday: 68 °F

High & Low Weather Summary for the Past Weeks

 TemperatureHumidityPressure
High93 °F (Feb 16, 1:00 pm)100% (Feb 27, 9:00 am)30.27 "Hg (Feb 27, 9:00 am)
Low52 °F (Feb 23, 6:00 am)27% (Feb 13, 2:00 pm)29.56 "Hg (Feb 17, 4:00 pm)
Average71 °F62%29.88 "Hg
* Reported Feb 12 11:00 pm — Feb 27 11:00 pm, Canelones. Weather by CustomWeather, © 2020

Note: Actual official high and low records may vary slightly from our data, if they occured in-between our weather recording intervals... More about our weather records

Canelones Weather History for the Previous 24 Hours

Scroll right to see more
 ConditionsComfort  
Time TempWeatherWind HumidityBarometerVisibility
11:00 pm
Thu, Feb 27
68 °FClear.5 mph49%29.92 "Hg10 mi
10:00 pm70 °FClear.6 mph46%29.92 "Hg10 mi
9:00 pm70 °FClear.6 mph46%29.92 "Hg10 mi
8:00 pm73 °FClear.3 mph36%29.89 "Hg10 mi
7:00 pm77 °FSunny.6 mph34%29.89 "Hg10 mi
6:00 pm81 °FPassing clouds.9 mph28%29.89 "HgN/A
5:00 pm82 °FScattered clouds.10 mph28%29.89 "HgN/A
4:00 pm82 °FScattered clouds.10 mph30%29.89 "HgN/A
3:00 pm82 °FPassing clouds.10 mph30%29.92 "HgN/A
2:00 pm82 °FSunny.10 mph28%29.95 "Hg10 mi
1:00 pm82 °FSunny.9 mph28%29.95 "Hg10 mi
12:00 pm81 °FSunny.12 mph30%29.95 "Hg10 mi
11:00 am77 °FSunny.10 mph34%29.98 "Hg10 mi
10:00 am73 °FSunny.9 mph41%29.98 "Hg10 mi
9:00 am52 °FSunny.12 mph100%29.98 "Hg10 mi
8:00 am61 °FSunny.9 mph68%29.98 "Hg10 mi
7:00 am57 °FSunny.6 mph67%29.98 "Hg10 mi
6:00 am54 °FClear.7 mph77%29.95 "Hg10 mi
5:00 am54 °FClear.5 mph77%29.95 "Hg10 mi
4:00 am55 °FClear.6 mph72%29.95 "Hg10 mi
3:00 am55 °FClear.6 mph77%29.95 "Hg10 mi
2:00 am55 °FClear.5 mph77%29.95 "Hg10 mi
1:00 am55 °FClear.3 mph77%29.95 "Hg10 mi
12:00 am57 °FClear.6 mph77%29.98 "Hg10 mi
Weather by CustomWeather, © 2020

See weather overview

Advertising